This demonstration page uses our WeatherBlox Daily Observations layout. Learn more.

Left ArrowRight Arrow

Hourly Observations for October 10, 2018

Temp ( °F °C ) Dew Point ( °F °C ) Humidity (%) Winds ( mph kmh ) Pressure ( in mb ) Visibility ( mi km ) Precip ( " mm )
12:54 am 00:54 Cloudy 47 8.3 44 6.7 90 90 NW 9 15 29.71 1006 10 16.0934 0 0
1:54 am 01:54 Cloudy 47 8.3 44 6.7 90 90 NW 10 17 29.72 1007 10 16.0934 0 0
2:54 am 02:54 Cloudy 46 7.8 43 6.1 89 89 NW 12 19 29.74 1007 10 16.0934 0 0
3:31 am 03:31 Cloudy 46 7.8 43 6.1 89 89 NW 10 17 29.74 1007 10 16.0934 0 0
3:39 am 03:39 Cloudy 46 7.8 43 6.1 89 89 NW 12 19 29.71 1006 10 16.0934 0 0
3:54 am 03:54 Cloudy with Light Rain 46 7.8 42 5.6 86 86 NW 12 19 29.73 1007 10 16.0934 0 0.0254
4:54 am 04:54 Cloudy 45 7.2 42 5.6 90 90 WNW 8 13 29.75 1008 10 16.0934 0 0.0254
5:23 am 05:23 Cloudy 44 6.7 42 5.6 93 93 NW 14 22 29.77 1008 10 16.0934 0 0
5:30 am 05:30 Cloudy 44 6.7 42 5.6 93 93 NW 9 15 29.77 1008 8 12.87472 0 0
5:38 am 05:38 Cloudy 44 6.7 42 5.6 93 93 WNW 9 15 29.8 1009 10 16.0934 0 0
5:54 am 05:54 Cloudy 44 6.7 42 5.6 93 93 NW 12 19 29.76 1008 8 12.87472 0 0
6:22 am 06:22 Mostly Cloudy 43 6.1 40 4.4 89 89 NW 12 19 29.8 1009 10 16.0934 0 0
6:54 am 06:54 Mostly Cloudy 43 6.1 40 4.4 89 89 NW 10 17 29.77 1008 10 16.0934 0 0
7:35 am 07:35 Cloudy 43 6.1 40 4.4 89 89 NW 12 19 29.8 1009 10 16.0934 0 0
7:54 am 07:54 Cloudy 43 6.1 40 4.4 89 89 WNW 10 17 29.78 1009 8 12.87472 0 0
8:16 am 08:16 Cloudy 43 6.1 40 4.4 89 89 WNW 13 20 29.83 1010 8 12.87472 0 0
8:54 am 08:54 Cloudy 42 5.6 38 3.3 85 85 NW 16 26 29.81 1010 10 16.0934 0 0
9:36 am 09:36 Cloudy 43 6.1 38 3.3 82 82 WNW 15 24 29.85 1011 10 16.0934 0 0.0254
9:54 am 09:54 Cloudy 42 5.6 37 2.8 82 82 WNW 15 24 29.84 1010 10 16.0934 0 0.0254
10:54 am 10:54 Cloudy 44 6.7 36 2.2 73 73 WNW 18 30 29.86 1011 10 16.0934 0 0
11:54 am 11:54 Cloudy 45 7.2 37 2.8 74 74 W 18 30 29.87 1012 10 16.0934 0 0
12:17 pm 12:17 Cloudy 45 7.2 37 2.8 74 74 WNW 17 28 29.88 1012 10 16.0934 0 0
12:27 pm 12:27 Cloudy 45 7.2 37 2.8 74 74 W 18 30 29.91 1013 10 16.0934 0 0
12:54 pm 12:54 Cloudy 46 7.8 36 2.2 68 68 WNW 18 30 29.88 1012 10 16.0934 0 0
1:54 pm 13:54 Cloudy 46 7.8 36 2.2 68 68 WNW 20 31 29.89 1012 10 16.0934 0 0
2:54 pm 14:54 Cloudy 48 8.9 35 1.7 61 61 WNW 18 30 29.9 1013 10 16.0934 0 0
3:29 pm 15:29 Cloudy 48 8.9 35 1.7 61 61 WNW 16 26 29.94 1014 10 16.0934 0 0
3:54 pm 15:54 Cloudy 48 8.9 34 1.1 58 58 WNW 21 33 29.92 1013 10 16.0934 0 0
4:54 pm 16:54 Cloudy 48 8.9 35 1.7 61 61 NW 14 22 29.94 1014 10 16.0934 0 0
5:54 pm 17:54 Cloudy 46 7.8 33 0.6 61 61 NW 17 28 29.96 1015 10 16.0934 0 0
6:54 pm 18:54 Cloudy 45 7.2 32 0 61 61 NW 16 26 29.98 1015 10 16.0934 0 0
7:54 pm 19:54 Cloudy 44 6.7 32 0 63 63 NW 14 22 30.03 1017 10 16.0934 0 0
8:54 pm 20:54 Cloudy 42 5.6 31 -0.6 65 65 NW 17 28 30.06 1018 10 16.0934 0 0
9:54 pm 21:54 Cloudy 42 5.6 31 -0.6 65 65 NW 13 20 30.1 1019 10 16.0934 0 0
10:08 pm 22:08 Cloudy 42 5.6 31 -0.6 65 65 NW 18 30 30.12 1020 10 16.0934 0 0
10:54 pm 22:54 Cloudy 41 5 32 0 70 70 NW 13 20 30.12 1020 10 16.0934 0 0
11:27 pm 23:27 Cloudy 41 5 32 0 70 70 NW 13 20 30.15 1021 10 16.0934 0 0
11:54 pm 23:54 Cloudy 41 5 32 0 70 70 NW 12 19 30.13 1020 10 16.0934 0 0

Powered by AerisWeather